Wahoo, NE

9:24 AM CDT on March 26, 2017 (GMT -0500)
Wahoo Municipal

Weather History for KAHQ - February, 2013

Change the Weather History Date:

Saturday, February 9, 2013

  Actual Average Record
Temperature  
Mean Temperature 40 °F -  
Max Temperature 51 °F 35 °F 62 °F (1977)
Min Temperature 28 °F 11 °F -16 °F (1975)
Degree Days  
Heating Degree Days 26    
Moisture  
Dew Point 33 °F    
Average Humidity 80    
Maximum Humidity 93    
Minimum Humidity 59    
Precipitation  
Precipitation 0.00 in - - ()
Sea Level Pressure  
Sea Level Pressure 29.90 in    
Wind  
Wind Speed 17 mph (SSE)    
Max Wind Speed 23 mph    
Max Gust Speed 28 mph    
Visibility 7 miles    
Events Rain    
Averages and records for this station are not official NWS values.
T = Trace of Precipitation, MM = Missing Value Source: NWS Daily Summary

Daily Weather History Graph

Daily Weather History Graph

Search for Another Location

Airport or City:

Trip Planner

Search our weather history database for the weather conditions in past years. The results will help you decide how hot, cold, wet, or windy it might be!

Date:

Astronomy

Feb. 09, 2013 Rise Set
Actual Time 7:28 AM CST 5:53 PM CST
Civil Twilight 6:59 AM CST 6:22 PM CST
Nautical Twilight 6:27 AM CST 6:54 PM CST
Astronomical Twilight 5:55 AM CST 7:26 PM CST
Moon 6:40 AM CST (2/9) 5:37 PM CST (2/9)
Length of Visible Light 11h 22m
Length of Day
10h 25m
Waning Crescent, 0% of the Moon is Illuminated
Feb 9
Waning Crescent
Feb 10
New
Feb 17
First Quarter
Feb 25
Full
Mar 4
Last Quarter

Hourly Weather History & Observations

Time (CST) Temp. Windchill Dew Point Humidity Pressure Visibility Wind Dir Wind Speed Gust Speed Precip Events Conditions
12:15 AM 28.4 °F 18.5 °F 26.2 °F 92% 30.12 in 7.0 mi SE 11.5 mph - N/A   Clear
12:35 AM 28.9 °F 18.2 °F 26.6 °F 91% 30.12 in 7.0 mi SE 13.8 mph - N/A   Scattered Clouds
12:55 AM 29.7 °F 18.6 °F 27.5 °F 92% 30.11 in 5.0 mi SE 15.0 mph - N/A   Mostly Cloudy
1:15 AM 30.9 °F 19.8 °F 28.4 °F 90% 30.11 in 5.0 mi SSE 16.1 mph 23.0 mph N/A   Overcast
1:35 AM 31.1 °F 19.3 °F 29.1 °F 92% 30.11 in 5.0 mi SSE 18.4 mph 26.5 mph N/A   Overcast
1:55 AM 31.5 °F 19.8 °F 29.3 °F 92% 30.11 in 5.0 mi SSE 18.4 mph - N/A   Overcast
2:15 AM 31.5 °F 19.8 °F 29.3 °F 92% 30.10 in 4.0 mi SSE 18.4 mph - N/A   Overcast
2:35 AM 31.5 °F 20.1 °F 29.3 °F 92% 30.10 in 4.0 mi SSE 17.3 mph 23.0 mph N/A   Overcast
2:55 AM 31.5 °F 19.8 °F 29.3 °F 92% 30.09 in 4.0 mi SSE 18.4 mph - N/A   Overcast
3:15 AM 31.1 °F 19.3 °F 29.3 °F 93% 30.08 in 4.0 mi SSE 18.4 mph 24.2 mph N/A   Overcast
3:35 AM 31.3 °F 19.2 °F 29.3 °F 92% 30.07 in 4.0 mi SSE 19.6 mph 24.2 mph N/A   Overcast
3:55 AM 31.3 °F 19.2 °F 29.3 °F 92% 30.06 in 4.0 mi SSE 19.6 mph 24.2 mph N/A   Overcast
4:15 AM 31.1 °F 19.7 °F 29.3 °F 93% 30.06 in 4.0 mi SSE 17.3 mph 24.2 mph N/A   Overcast
4:35 AM 31.1 °F 20.1 °F 29.3 °F 93% 30.04 in 4.0 mi SSE 16.1 mph 24.2 mph N/A   Overcast
4:55 AM 31.1 °F 19.7 °F 29.3 °F 93% 30.04 in 4.0 mi SSE 17.3 mph 23.0 mph N/A   Overcast
5:15 AM 31.1 °F 20.1 °F 29.3 °F 93% 30.04 in 4.0 mi SSE 16.1 mph 21.9 mph N/A   Overcast
5:35 AM 31.1 °F 19.7 °F 29.1 °F 92% 30.03 in 4.0 mi SSE 17.3 mph 24.2 mph N/A   Overcast
5:55 AM 31.1 °F 19.3 °F 29.1 °F 92% 30.02 in 4.0 mi SSE 18.4 mph 24.2 mph N/A   Overcast
6:15 AM 31.1 °F 20.1 °F 29.1 °F 92% 30.02 in 4.0 mi SSE 16.1 mph - N/A   Overcast
6:35 AM 31.1 °F 18.6 °F 28.9 °F 92% 30.02 in 4.0 mi SSE 20.7 mph 25.3 mph N/A   Overcast
6:55 AM 31.1 °F 18.9 °F 28.8 °F 91% 30.02 in 4.0 mi SSE 19.6 mph - N/A   Overcast
7:15 AM 30.9 °F 19.4 °F 28.4 °F 90% 30.02 in 4.0 mi SSE 17.3 mph 24.2 mph N/A   Overcast
7:35 AM 30.7 °F 20.0 °F 28.4 °F 91% 30.02 in 4.0 mi SSE 15.0 mph 21.9 mph N/A   Overcast
7:55 AM 30.7 °F 18.1 °F 28.4 °F 91% 30.01 in 3.0 mi SSE 20.7 mph 25.3 mph N/A   Overcast
8:15 AM 30.7 °F 18.8 °F 28.4 °F 91% 30.00 in 3.0 mi SSE 18.4 mph - N/A   Overcast
8:35 AM 31.1 °F 19.7 °F 28.9 °F 92% 30.00 in 3.0 mi SSE 17.3 mph 20.7 mph N/A   Overcast
8:55 AM 31.6 °F 21.2 °F 29.3 °F 91% 30.00 in 3.0 mi SSE 15.0 mph 20.7 mph N/A   Overcast
9:15 AM 32.0 °F 21.6 °F 29.8 °F 92% 30.00 in 4.0 mi SSE 15.0 mph - N/A   Overcast
9:35 AM 32.9 °F 22.0 °F 30.2 °F 90% 29.99 in 4.0 mi SSE 17.3 mph - N/A   Overcast
9:55 AM 34.5 °F 24.1 °F 30.9 °F 87% 29.99 in 5.0 mi SSE 17.3 mph 21.9 mph N/A   Overcast
10:15 AM 36.0 °F 26.0 °F 31.3 °F 83% 29.98 in 5.0 mi SSE 17.3 mph 21.9 mph N/A   Haze
10:35 AM 37.4 °F 27.5 °F 32.0 °F 81% 29.97 in 7.0 mi SSE 18.4 mph - N/A   Scattered Clouds
10:55 AM 38.8 °F 29.7 °F 32.4 °F 78% 29.97 in 7.0 mi SSE 17.3 mph - N/A   Scattered Clouds
11:15 AM 40.6 °F 31.2 °F 32.9 °F 74% 29.96 in 10.0 mi SSE 20.7 mph - N/A   Clear
11:35 AM 42.8 °F 34.3 °F 33.8 °F 70% 29.95 in 10.0 mi SSE 19.6 mph - N/A   Clear
11:55 AM 45.3 °F 37.1 °F 34.9 °F 67% 29.93 in 10.0 mi South 21.9 mph 27.6 mph N/A   Clear
12:15 PM 46.4 °F 39.0 °F 35.1 °F 65% 29.92 in 10.0 mi SSE 19.6 mph 27.6 mph N/A   Clear
12:35 PM 47.8 °F - 35.8 °F 63% 29.90 in 10.0 mi SSE 23.0 mph 27.6 mph N/A   Clear
12:55 PM 47.7 °F - 35.8 °F 63% 29.88 in 10.0 mi SSE 17.3 mph 24.2 mph N/A   Clear
1:15 PM 48.9 °F - 36.9 °F 63% 29.86 in 10.0 mi SSE 18.4 mph - N/A   Clear
1:35 PM 50.4 °F - 37.2 °F 61% 29.85 in 10.0 mi SSE 17.3 mph - N/A   Clear
1:55 PM 50.9 °F - 37.2 °F 59% 29.83 in 10.0 mi SE 20.7 mph - N/A   Clear
2:15 PM 49.8 °F - 36.9 °F 61% 29.83 in 10.0 mi SSE 20.7 mph 26.5 mph N/A   Clear
2:35 PM 50.2 °F - 36.7 °F 60% 29.81 in 10.0 mi SSE 19.6 mph 25.3 mph N/A   Clear
2:55 PM 50.9 °F - 36.9 °F 59% 29.80 in 10.0 mi South 23.0 mph 26.5 mph N/A   Scattered Clouds
3:15 PM 51.3 °F - 37.4 °F 59% 29.80 in 10.0 mi SSE 20.7 mph - N/A   Clear
3:35 PM 51.6 °F - 37.9 °F 60% 29.78 in 10.0 mi SSE 21.9 mph 26.5 mph N/A   Clear
3:55 PM 51.1 °F - 37.6 °F 60% 29.77 in 10.0 mi SSE 19.6 mph 26.5 mph N/A   Scattered Clouds
4:15 PM 50.9 °F - 37.8 °F 61% 29.77 in 10.0 mi SSE 20.7 mph 26.5 mph N/A   Mostly Cloudy
4:35 PM 48.9 °F - 37.4 °F 64% 29.77 in 10.0 mi SSE 18.4 mph 27.6 mph N/A   Scattered Clouds
4:55 PM 49.1 °F - 37.9 °F 65% 29.76 in 10.0 mi SSE 18.4 mph 21.9 mph N/A   Scattered Clouds
5:15 PM 47.7 °F - 37.6 °F 68% 29.75 in 10.0 mi SE 16.1 mph - N/A   Clear
5:35 PM 45.3 °F 39.3 °F 37.4 °F 74% 29.74 in 10.0 mi ESE 12.7 mph - N/A   Scattered Clouds
5:55 PM 44.1 °F 37.1 °F 37.0 °F 76% 29.73 in 10.0 mi SE 15.0 mph - N/A   Mostly Cloudy
6:15 PM 44.8 °F 37.7 °F 37.4 °F 75% 29.73 in 10.0 mi SE 16.1 mph - N/A   Mostly Cloudy
6:35 PM 42.1 °F 34.9 °F 36.0 °F 79% 29.73 in 10.0 mi ESE 13.8 mph - N/A   Mostly Cloudy
6:55 PM 41.2 °F 33.4 °F 35.2 °F 79% 29.73 in 10.0 mi SE 15.0 mph - N/A   Scattered Clouds
7:35 PM 42.4 °F 34.1 °F 34.7 °F 74% 29.73 in 10.0 mi SE 18.4 mph 25.3 mph N/A   Mostly Cloudy
7:55 PM 41.9 °F 33.7 °F 34.3 °F 75% 29.73 in 10.0 mi SE 17.3 mph - N/A   Overcast
8:15 PM 41.0 °F 32.5 °F 33.8 °F 76% 29.72 in 10.0 mi SE 17.3 mph - N/A   Overcast
8:35 PM 40.1 °F 32.0 °F 33.8 °F 78% 29.71 in 10.0 mi SE 15.0 mph - N/A   Mostly Cloudy
8:55 PM 40.3 °F 31.9 °F 34.0 °F 78% 29.70 in 10.0 mi SE 16.1 mph - N/A   Overcast
9:15 PM 40.1 °F 31.3 °F 34.0 °F 79% 29.69 in 10.0 mi SE 17.3 mph - N/A   Overcast
9:35 PM 39.7 °F 30.9 °F 33.8 °F 79% 29.68 in 10.0 mi SE 17.3 mph - N/A   Overcast
9:55 PM 39.4 °F 30.1 °F 33.8 °F 80% 29.67 in 10.0 mi SE 18.4 mph - N/A   Overcast
10:15 PM 39.6 °F 31.3 °F 34.0 °F 80% 29.66 in 10.0 mi SE 15.0 mph - N/A   Overcast
10:35 PM 40.1 °F 32.0 °F 34.0 °F 79% 29.66 in 10.0 mi SE 15.0 mph 21.9 mph N/A   Overcast
10:55 PM 40.1 °F 31.6 °F 33.8 °F 78% 29.66 in 10.0 mi SSE 16.1 mph 21.9 mph N/A   Overcast
11:15 PM 40.1 °F 32.7 °F 33.8 °F 78% 29.69 in 10.0 mi South 12.7 mph - N/A   Overcast
11:35 PM 38.8 °F 32.1 °F 34.9 °F 86% 29.68 in 7.0 mi SSE 10.4 mph - N/A Rain Light Rain
11:55 PM 38.8 °F 30.0 °F 34.7 °F 85% 29.65 in 10.0 mi SE 16.1 mph 20.7 mph N/A   Overcast